Wind_Speed
10 9 9 8 7 7 6 6 6 6 6 6 6 6 6 6 5 5 4 4 4 5 5 5 5 5 5 5 5 6 6 6 7 7 7 6 6 6 7 7 7 7 8 9
12 11 10 10 9 8 8 7 7 8 8 7 7 6 7 8 7 6 5 5 5 5 6 5 5 5 6 6 6 6 7 7 8 8 8 7 7 8 8 7 7 8 9 9
13 13 12 12 10 9 8 8 8 9 9 8 8 7 7 8 8 7 7 7 6 6 7 7 7 7 8 7 7 7 8 8 9 9 9 9 9 10 9 9 9 10 10 10
15 14 14 13 12 11 10 10 9 9 9 9 8 7 8 8 9 9 9 9 8 8 8 9 9 8 9 9 9 9 9 10 10 11 11 10 10 10 10 10 11 11 11 11
15 15 14 14 13 13 12 12 11 10 10 10 9 8 8 9 9 10 10 11 10 9 9 10 10 9 10 11 11 12 12 11 11 11 11 11 10 11 11 11 12 12 13 13
16 16 16 15 15 14 13 13 12 11 10 11 11 10 9 10 10 10 11 11 12 11 11 11 11 11 12 12 13 13 13 12 11 11 12 12 12 12 13 12 13 13 13 14
16 17 17 16 16 15 14 13 12 12 13 13 12 11 11 10 10 11 11 12 12 12 12 12 12 13 13 13 13 13 13 12 12 12 12 13 13 13 13 13 13 13 13 14
17 17 17 17 16 16 15 14 14 13 14 14 15 13 12 12 12 12 12 12 12 13 13 13 13 13 14 13 13 14 13 13 13 13 13 13 13 13 13 13 13 13 13 13
19 18 19 18 17 17 17 16 16 15 15 14 15 15 15 14 13 13 13 13 13 13 14 14 14 14 14 14 14 13 13 14 14 14 14 14 14 13 13 13 13 13 13 13
21 20 20 19 19 19 19 18 17 17 17 16 16 16 15 15 14 14 14 14 14 14 14 15 14 15 16 15 14 14 14 14 14 14 14 15 15 15 14 14 14 14 14 15
22 22 21 21 21 20 20 20 19 18 18 17 17 17 17 15 15 15 15 15 15 14 14 14 15 15 16 15 15 15 15 15 15 15 15 16 16 16 16 17 16 16 16 16
23 22 22 22 22 22 22 22 20 20 20 19 18 18 17 17 16 16 16 16 16 16 15 14 15 15 15 16 16 16 16 17 17 16 17 17 18 17 17 17 18 18 18 18
25 24 23 22 23 24 24 24 23 21 21 20 19 20 20 19 18 17 17 18 18 17 16 16 16 16 16 16 17 17 17 18 18 18 18 18 18 19 19 19 19 19 20 20
27 27 26 25 23 23 25 25 24 23 22 21 21 21 21 21 20 18 18 18 19 19 18 17 17 17 17 17 18 18 18 18 19 19 19 19 20 20 20 20 20 20 21 22
29 28 28 27 27 27 26 25 25 25 24 23 22 22 21 22 22 20 20 19 19 19 19 19 19 19 19 19 19 19 19 19 20 20 20 21 21 21 21 21 22 22 22 22
30 29 29 29 28 29 29 27 26 25 24 23 23 22 22 22 22 21 20 20 20 20 20 20 20 20 21 21 20 20 20 20 20 21 21 21 21 22 22 22 22 23 24 24
30 30 30 29 29 30 30 27 26 25 24 23 22 22 22 22 22 21 21 21 21 21 21 20 20 21 21 22 21 21 21 21 21 21 21 21 21 22 23 23 23 24 24 25
29 30 30 29 29 30 28 27 25 25 24 24 24 23 23 22 22 22 22 22 22 21 21 22 22 22 22 22 22 22 22 22 22 22 22 22 22 22 23 23 24 24 25 25
27 28 28 28 29 29 28 27 26 25 25 25 24 23 24 23 23 23 23 23 22 22 22 22 23 22 23 23 23 23 23 23 23 23 23 23 23 23 23 23 24 25 26 27
27 28 28 28 29 28 27 26 25 26 26 26 25 25 24 24 24 25 24 24 24 23 23 23 23 23 23 23 23 24 24 23 23 24 24 24 24 24 24 24 25 26 28 28
28 28 28 28 28 27 27 26 25 27 27 26 26 26 26 25 25 25 24 24 24 24 24 24 25 25 24 24 24 25 25 25 25 25 25 26 25 25 26 27 26 27 28 28
28 28 28 27 27 28 27 26 27 27 27 27 27 27 27 27 26 25 24 24 24 25 24 25 25 25 26 26 26 26 26 26 26 27 27 27 27 28 28 28 29 29 29 29
29 29 29 29 29 29 28 27 27 27 27 27 27 27 27 27 27 25 25 25 26 25 26 26 26 27 27 27 27 27 27 28 28 28 28 29 30 30 29 30 30 30 29 30
30 30 30 30 30 30 29 28 27 27 27 27 27 28 28 27 27 26 26 27 27 27 28 28 28 28 29 28 28 29 29 29 29 29 29 30 31 32 31 30 30 30 30 31
28 29 29 29 29 28 29 29 29 28 28 27 27 27 28 29 28 27 27 26 27 28 28 28 28 29 29 29 30 30 30 30 30 30 30 31 31 31 31 31 31 32 32 32
28 28 29 29 28 28 28 28 29 28 28 27 27 27 27 27 28 28 28 28 28 28 28 28 28 29 29 30 31 31 30 31 31 31 30 31 31 31 31 32 32 32 32 32
Wind_Direction
233 236 236 233 233 235 240 244 252 269 278 284 284 280 278 278 276 282 293 301 307 311 307 300 297 302 304 306 312 318 318 319 316 319 319 304 300 299 302 300 294 292 292 290
234 237 232 230 234 241 245 248 259 271 278 282 283 282 281 276 271 273 279 286 296 302 300 299 299 298 298 300 302 306 308 309 309 311 313 304 296 293 293 293 293 295 295 292
233 235 232 232 235 242 245 248 258 270 279 282 279 281 281 271 265 268 275 284 292 295 292 295 301 299 300 297 296 298 299 300 303 307 306 302 298 295 293 287 286 290 294 293
233 232 232 232 235 239 246 252 259 269 275 281 277 269 276 271 266 268 275 283 288 289 289 291 292 293 296 297 295 296 298 301 301 302 304 300 298 298 295 288 287 289 293 292
235 233 232 232 236 240 243 250 259 265 271 275 276 267 269 276 272 273 277 281 281 284 286 289 289 291 295 297 297 298 298 299 299 301 302 302 297 297 299 297 294 292 292 290
236 236 236 236 240 242 246 251 260 266 267 270 273 268 261 271 276 279 278 279 278 280 283 287 288 289 292 296 297 298 296 297 296 296 297 299 297 296 295 295 294 295 294 291
239 239 238 238 241 244 247 251 259 263 264 269 274 269 264 269 270 275 276 276 277 279 282 286 287 288 291 294 296 298 299 295 294 293 293 297 299 298 293 294 295 295 296 294
240 241 241 240 240 243 246 247 251 256 263 269 277 272 272 273 271 273 274 273 278 281 285 287 289 288 289 293 295 297 297 296 295 292 292 295 297 299 296 295 296 297 297 296
240 242 244 242 241 243 246 248 252 257 262 265 270 276 275 273 273 274 272 274 276 281 284 286 288 290 289 290 292 294 293 295 296 294 291 291 295 298 299 296 295 295 296 296
241 243 244 243 244 245 246 250 255 255 257 263 269 273 275 274 273 274 275 277 280 283 284 284 286 290 291 290 289 291 293 294 294 293 292 290 292 292 295 296 296 296 295 294
241 243 244 243 243 245 247 248 250 255 257 261 268 271 274 272 273 278 279 279 282 283 284 285 286 288 288 287 287 287 288 288 288 288 288 288 289 292 291 290 293 295 295 295
239 242 243 243 245 247 247 249 252 255 260 262 265 269 272 274 272 275 276 276 277 279 281 285 286 286 286 286 286 286 285 286 286 286 286 286 287 290 294 292 291 292 292 292
239 241 244 246 249 250 250 252 254 255 260 263 265 269 272 273 272 271 273 273 275 275 278 282 284 286 285 284 283 283 284 285 285 285 286 286 287 289 293 294 293 292 290 288
239 241 241 243 245 250 252 253 255 255 257 262 265 266 269 271 274 274 272 274 276 277 276 279 282 285 285 282 281 282 283 285 285 285 286 287 286 288 291 291 291 290 290 288
241 243 244 244 246 248 252 254 256 257 258 261 266 268 271 272 274 275 275 277 278 279 279 279 281 283 283 283 280 282 283 283 286 286 285 286 287 288 289 290 290 291 290 289
242 244 246 248 249 250 253 255 256 256 256 258 262 266 267 270 273 275 276 278 279 279 279 279 281 283 283 283 281 281 281 282 286 287 287 286 287 288 289 290 290 290 289 289
244 246 247 247 248 250 251 253 255 255 255 257 262 266 267 268 270 273 275 277 277 276 277 278 281 282 281 281 280 280 280 281 283 285 286 286 286 287 289 289 290 290 290 289
244 245 247 247 247 248 251 254 255 255 255 257 261 265 267 269 269 271 274 275 274 274 277 280 281 278 278 279 279 280 281 282 283 283 284 285 286 287 288 289 289 290 291 291
244 244 244 246 249 251 251 252 254 255 256 257 261 265 268 268 269 270 271 273 274 273 273 276 278 278 279 279 278 278 280 282 283 284 284 285 287 289 290 290 290 291 292 293
243 243 244 246 248 251 252 255 253 254 255 257 260 264 266 266 267 267 268 269 272 272 271 272 274 276 278 279 278 279 280 281 284 286 285 285 287 289 291 292 292 292 293 293
242 243 244 247 250 252 252 254 254 253 255 258 260 263 265 267 266 266 267 268 270 272 273 272 272 274 277 278 280 281 280 281 284 286 286 286 287 289 291 292 293 293 293 294
242 243 244 246 249 250 252 253 252 255 258 260 261 262 264 265 267 266 267 269 270 271 272 272 271 273 276 277 278 280 280 281 282 283 284 287 287 289 290 291 293 293 294 294
241 242 244 246 247 249 251 252 253 255 258 259 260 261 263 263 265 265 267 269 271 271 271 271 270 271 274 276 278 279 280 282 284 284 285 285 287 288 289 289 291 291 293 294
243 241 243 247 249 251 252 252 254 256 258 258 258 260 261 264 265 265 266 268 270 270 270 270 271 271 273 274 276 279 281 282 283 285 287 287 287 287 288 290 290 291 292 293
245 244 244 247 249 250 253 254 255 257 257 259 259 260 262 263 264 266 265 267 269 268 270 270 271 273 272 273 276 280 280 281 283 285 287 288 288 288 287 288 288 289 291 292
244 245 245 247 249 252 253 253 255 255 255 257 259 259 260 262 263 266 268 268 268 269 270 269 270 271 272 273 276 278 280 281 282 283 285 287 287 286 287 288 287 288 290 291
Height
5901 5904 5905 5905 5906 5907 5907 5907 5908 5907 5907 5906 5905 5905 5905 5904 5903 5903 5902 5901 5900 5899 5898 5896 5895 5894 5893 5892 5891 5890 5889 5887 5886 5885 5883 5882 5881 5880 5879 5878 5877 5876 5875 5874
5900 5901 5902 5903 5903 5904 5905 5906 5906 5906 5905 5905 5904 5904 5903 5903 5902 5902 5901 5900 5899 5898 5897 5896 5894 5893 5892 5891 5890 5889 5887 5886 5885 5883 5882 5881 5879 5878 5877 5876 5875 5874 5873 5872
5897 5899 5899 5900 5901 5902 5903 5904 5904 5904 5903 5903 5903 5903 5902 5901 5900 5900 5900 5899 5898 5897 5896 5895 5893 5892 5891 5890 5889 5887 5886 5885 5883 5882 5880 5879 5878 5876 5875 5874 5873 5872 5870 5869
5893 5895 5896 5897 5899 5900 5901 5902 5902 5902 5901 5902 5902 5902 5901 5899 5899 5898 5898 5897 5896 5895 5894 5893 5892 5890 5889 5888 5887 5885 5884 5883 5881 5880 5878 5877 5875 5874 5872 5871 5870 5869 5868 5867
5890 5892 5893 5894 5896 5897 5898 5899 5899 5899 5899 5899 5899 5900 5901 5898 5897 5896 5896 5895 5894 5893 5892 5891 5890 5889 5888 5886 5885 5883 5882 5880 5879 5877 5876 5874 5873 5872 5870 5868 5867 5866 5865 5864
5886 5888 5889 5891 5892 5893 5894 5896 5896 5896 5896 5897 5897 5897 5898 5896 5895 5894 5893 5892 5892 5891 5890 5889 5888 5886 5885 5884 5882 5880 5879 5878 5876 5875 5873 5872 5871 5869 5868 5866 5864 5863 5862 5861
5882 5884 5885 5887 5888 5889 5891 5893 5895 5895 5895 5895 5894 5893 5895 5893 5892 5892 5891 5890 5889 5888 5887 5887 5885 5884 5882 5881 5879 5878 5876 5875 5874 5872 5871 5870 5868 5866 5864 5863 5862 5860 5859 5858
5879 5881 5882 5883 5885 5886 5887 5890 5892 5893 5893 5893 5891 5890 5892 5890 5889 5888 5888 5887 5886 5885 5884 5884 5882 5881 5879 5878 5876 5875 5873 5872 5871 5869 5868 5867 5865 5863 5862 5861 5859 5857 5856 5854
5875 5877 5878 5879 5880 5882 5883 5885 5887 5888 5888 5888 5888 5887 5887 5886 5885 5885 5884 5884 5883 5882 5881 5880 5879 5877 5876 5874 5873 5871 5870 5869 5867 5866 5865 5863 5862 5861 5859 5857 5856 5854 5853 5851
5869 5872 5873 5874 5876 5877 5879 5880 5882 5882 5883 5884 5884 5884 5884 5882 5882 5881 5880 5880 5879 5878 5877 5876 5875 5874 5872 5871 5869 5868 5867 5866 5864 5863 5861 5860 5859 5857 5856 5854 5853 5851 5849 5848
5864 5867 5869 5870 5871 5873 5874 5875 5876 5878 5878 5880 5880 5882 5879 5878 5877 5877 5876 5876 5875 5874 5873 5872 5871 5870 5868 5867 5866 5865 5863 5862 5861 5859 5858 5857 5855 5853 5852 5851 5849 5847 5846 5844
5858 5861 5862 5865 5866 5867 5869 5870 5872 5874 5873 5873 5875 5878 5874 5873 5873 5872 5872 5871 5871 5870 5869 5868 5867 5865 5864 5863 5862 5860 5859 5858 5857 5855 5854 5853 5851 5849 5848 5846 5845 5843 5842 5841
5852 5854 5857 5859 5862 5862 5862 5864 5866 5867 5868 5868 5869 5873 5869 5868 5868 5868 5867 5867 5866 5865 5864 5863 5862 5861 5860 5858 5857 5856 5855 5853 5852 5851 5849 5848 5846 5845 5843 5842 5840 5839 5837 5836
5845 5847 5851 5854 5856 5856 5856 5858 5859 5861 5862 5863 5863 5864 5863 5862 5862 5862 5862 5861 5861 5860 5859 5858 5857 5856 5855 5853 5852 5851 5850 5849 5847 5846 5844 5843 5841 5840 5838 5837 5835 5834 5832 5831
5837 5840 5842 5845 5847 5849 5849 5851 5852 5853 5855 5856 5857 5857 5857 5856 5856 5856 5856 5855 5855 5854 5853 5853 5852 5851 5849 5848 5847 5846 5845 5844 5842 5841 5839 5837 5836 5834 5833 5831 5830 5828 5826 5825
5829 5832 5834 5836 5839 5840 5841 5844 5845 5846 5848 5848 5849 5850 5850 5850 5850 5849 5849 5849 5848 5848 5847 5846 5846 5845 5844 5842 5841 5840 5840 5838 5837 5835 5833 5832 5830 5829 5827 5825 5824 5822 5820 5819
5820 5823 5826 5829 5831 5831 5833 5837 5838 5839 5840 5842 5843 5844 5843 5843 5843 5843 5843 5842 5842 5841 5840 5840 5839 5838 5837 5836 5835 5835 5834 5833 5831 5829 5828 5826 5825 5823 5821 5819 5818 5816 5814 5813
5812 5815 5817 5820 5822 5823 5829 5829 5830 5831 5833 5835 5835 5836 5836 5836 5837 5837 5836 5836 5835 5835 5834 5833 5832 5831 5831 5830 5829 5829 5827 5826 5825 5823 5822 5821 5819 5817 5815 5813 5812 5810 5808 5806
5804 5807 5809 5812 5814 5816 5820 5821 5822 5824 5825 5827 5828 5828 5829 5829 5830 5829 5829 5829 5828 5828 5827 5827 5826 5825 5824 5824 5823 5822 5821 5820 5818 5817 5815 5814 5813 5811 5809 5807 5805 5803 5802 5800
5797 5799 5802 5804 5806 5809 5813 5813 5814 5817 5818 5819 5820 5821 5822 5822 5823 5823 5822 5822 5821 5821 5820 5820 5819 5819 5818 5817 5816 5815 5814 5813 5812 5810 5809 5807 5806 5804 5802 5800 5798 5797 5795 5793
5789 5791 5794 5796 5798 5801 5803 5805 5807 5810 5811 5811 5812 5813 5814 5814 5815 5814 5814 5814 5814 5813 5813 5812 5812 5812 5811 5810 5809 5808 5807 5806 5805 5804 5802 5801 5799 5797 5795 5794 5792 5790 5788 5785
5781 5784 5786 5788 5791 5795 5794 5797 5799 5801 5801 5803 5804 5805 5806 5806 5806 5806 5807 5807 5806 5806 5805 5805 5804 5804 5803 5803 5802 5801 5800 5799 5798 5797 5795 5793 5791 5790 5788 5786 5784 5782 5780 5778
5773 5776 5778 5781 5784 5785 5786 5788 5790 5792 5793 5794 5795 5797 5798 5798 5798 5799 5799 5799 5799 5798 5798 5797 5797 5796 5796 5795 5795 5794 5793 5792 5790 5789 5787 5786 5784 5781 5779 5778 5776 5774 5772 5770
5764 5767 5769 5771 5774 5776 5778 5779 5781 5783 5784 5786 5787 5788 5789 5789 5790 5791 5791 5791 5791 5790 5790 5789 5789 5789 5788 5787 5787 5786 5785 5784 5782 5781 5779 5777 5776 5774 5772 5770 5768 5766 5764 5761
5755 5758 5760 5763 5765 5767 5769 5771 5773 5774 5776 5777 5779 5780 5780 5781 5782 5782 5783 5782 5782 5782 5782 5781 5781 5781 5780 5779 5779 5778 5777 5775 5774 5772 5770 5769 5767 5765 5763 5761 5759 5757 5755 5753
5747 5750 5752 5755 5757 5759 5761 5763 5764 5766 5767 5769 5770 5771 5772 5773 5773 5774 5774 5774 5774 5773 5773 5773 5773 5772 5772 5771 5770 5769 5768 5766 5765 5763 5761 5760 5758 5756 5754 5752 5750 5748 5746 5744